Location: Trebic
(49.2170°N, 15.8830°E)
Time: 15:19:24
(UTC+02:00)

Transit 4A - Pass Details

Date: 28 August 2019
Orbit: 865 x 979 km, 66.8° (Epoch: 22 September)

Event Time Altitude Azimuth Distance (km) Brightness Sun altitude
Rises 17:16:24 0° 192° (SSW) 3,661 11.3 23.7°
Reaches altitude 10° 17:19:03 10° 187° (S) 2,721 10.7 23.3°
Maximum altitude 17:25:06 47° 115° (ESE) 1,277 8.6 22.4°
Drops below altitude 10° 17:31:09 10° 44° (NE) 2,722 9.9 21.4°
Sets 17:33:47 0° 39° (NE) 3,662 10.6 21.0°
